Wetterdaten: aktuell Samstag, 23.03.2019 13:30
Datum Zeit Temp. A. Pool Temp. Temp. 5cm Feuchte A. Luftdruck Regen Wind Richtung Richtung Sonnenschein ET UV Solar Taupunkt Windchill Windben Empfang
23.03.2019 13:30 16,9 C 7,8 C 28,3 C 51 % 1025,7 hPa 0,0 l/m 7,2 km/h (2 Bft) N-NO 23 2 min 0,000 mm 2,5 UV-I 622 W/m 6,7 C 16,5 C 12,9 km/h (3 Bft) 97,44 %
23.03.2019 13:28 16,8 C 7,8 C 28,9 C 47 % 1025,7 hPa 0,0 l/m 5,2 km/h (1 Bft) N-NO 26 2 min 0,000 mm 2,5 UV-I 625 W/m 5,4 C 16,8 C 8,0 km/h (2 Bft) 97,87 %
23.03.2019 13:26 16,8 C 7,8 C 28,3 C 46 % 1025,7 hPa 0,0 l/m 2,9 km/h (1 Bft) O-NO 76 2 min 0,000 mm 2,5 UV-I 627 W/m 5,1 C 16,8 C 4,8 km/h (1 Bft) 98,11 %
23.03.2019 13:24 16,9 C 7,8 C 27,8 C 53 % 1025,8 hPa 0,0 l/m 5,8 km/h (2 Bft) N 351 2 min 0,000 mm 2,5 UV-I 627 W/m 7,3 C 16,9 C 12,9 km/h (3 Bft) 97,87 %
23.03.2019 13:22 16,7 C 7,8 C 27,8 C 47 % 1025,8 hPa 0,0 l/m 5,6 km/h (1 Bft) NW 318 2 min 0,000 mm 2,5 UV-I 631 W/m 5,3 C 16,7 C 9,7 km/h (2 Bft) 97,87 %
23.03.2019 13:20 16,7 C 7,8 C 28,9 C 47 % 1025,8 hPa 0,0 l/m 5,0 km/h (1 Bft) N-NW 333 2 min 0,000 mm 2,6 UV-I 634 W/m 5,3 C 16,7 C 11,3 km/h (2 Bft) 97,87 %
23.03.2019 13:18 16,6 C 7,8 C 28,9 C 48 % 1025,8 hPa 0,0 l/m 2,4 km/h (1 Bft) W-NW 302 2 min 0,000 mm 2,6 UV-I 635 W/m 5,5 C 16,6 C 4,8 km/h (1 Bft) 97,87 %
23.03.2019 13:16 16,8 C 7,8 C 28,9 C 46 % 1025,9 hPa 0,0 l/m 4,5 km/h (1 Bft) W-NW 296 2 min 0,000 mm 2,6 UV-I 636 W/m 5,1 C 16,8 C 11,3 km/h (2 Bft) 100,00 %
23.03.2019 13:14 16,8 C 7,8 C 29,4 C 50 % 1025,9 hPa 0,0 l/m 5,1 km/h (1 Bft) W-NW 286 2 min 0,000 mm 2,6 UV-I 640 W/m 6,3 C 16,8 C 8,0 km/h (2 Bft) 97,56 %
23.03.2019 13:12 16,7 C 7,8 C 30,0 C 50 % 1025,9 hPa 0,0 l/m 3,9 km/h (1 Bft) N-NW 332 2 min 0,000 mm 2,6 UV-I 641 W/m 6,2 C 16,7 C 6,4 km/h (2 Bft) 95,74 %
23.03.2019 13:10 16,6 C 7,8 C 30,0 C 49 % 1025,9 hPa 0,0 l/m 1,6 km/h (1 Bft) N-NW 338 2 min 0,000 mm 2,6 UV-I 641 W/m 5,8 C 16,6 C 3,2 km/h (1 Bft) 100,00 %
23.03.2019 13:08 16,4 C 7,8 C 29,4 C 47 % 1025,9 hPa 0,0 l/m 2,0 km/h (1 Bft) SW 227 2 min 0,000 mm 2,7 UV-I 647 W/m 5,1 C 16,4 C 4,8 km/h (1 Bft) 100,00 %
23.03.2019 13:06 16,6 C 7,8 C 28,9 C 48 % 1026,0 hPa 0,0 l/m 2,7 km/h (1 Bft) SW 227 2 min 0,000 mm 2,7 UV-I 650 W/m 5,5 C 16,6 C 4,8 km/h (1 Bft) 97,87 %
23.03.2019 13:04 16,6 C 7,8 C 28,3 C 48 % 1026,0 hPa 0,0 l/m 2,7 km/h (1 Bft) NW 307 2 min 0,000 mm 2,7 UV-I 652 W/m 5,5 C 16,6 C 6,4 km/h (2 Bft) 95,74 %
23.03.2019 13:02 16,7 C 7,8 C 29,4 C 53 % 1026,0 hPa 0,0 l/m 7,3 km/h (2 Bft) NW 308 2 min 0,000 mm 2,7 UV-I 655 W/m 7,1 C 16,2 C 9,7 km/h (2 Bft) 97,87 %
23.03.2019 13:00 16,6 C 7,8 C 30,0 C 49 % 1026,0 hPa 0,0 l/m 3,6 km/h (1 Bft) N 5 2 min 0,381 mm 2,7 UV-I 656 W/m 5,8 C 16,6 C 8,0 km/h (2 Bft) 93,62 %
23.03.2019 12:58 16,5 C 7,8 C 30,0 C 48 % 1026,0 hPa 0,0 l/m 2,9 km/h (1 Bft) W-SW 245 2 min 0,000 mm 2,8 UV-I 659 W/m 5,5 C 16,5 C 4,8 km/h (1 Bft) 95,74 %
23.03.2019 12:56 16,4 C 7,8 C 29,4 C 46 % 1026,0 hPa 0,0 l/m 2,7 km/h (1 Bft) S-SW 198 2 min 0,000 mm 2,8 UV-I 657 W/m 4,8 C 16,4 C 6,4 km/h (2 Bft) 97,87 %
23.03.2019 12:54 16,4 C 7,8 C 30,0 C 50 % 1026,1 hPa 0,0 l/m 5,3 km/h (1 Bft) NW 306 2 min 0,000 mm 2,8 UV-I 658 W/m 6,0 C 16,4 C 8,0 km/h (2 Bft) 93,62 %
23.03.2019 12:52 16,3 C 7,8 C 30,6 C 48 % 1026,0 hPa 0,0 l/m 3,2 km/h (1 Bft) N-NW 346 2 min 0,000 mm 2,8 UV-I 662 W/m 5,3 C 16,3 C 8,0 km/h (2 Bft) 95,74 %
23.03.2019 12:50 16,2 C 7,8 C 30,6 C 48 % 1026,1 hPa 0,0 l/m 1,8 km/h (1 Bft) W-SW 242 2 min 0,000 mm 2,8 UV-I 664 W/m 5,2 C 16,2 C 3,2 km/h (1 Bft) 97,87 %
23.03.2019 12:48 16,3 C 7,8 C 30,0 C 47 % 1026,1 hPa 0,0 l/m 3,0 km/h (1 Bft) S-SW 203 2 min 0,000 mm 2,8 UV-I 666 W/m 5,0 C 16,3 C 4,8 km/h (1 Bft) 98,00 %
23.03.2019 12:46 16,3 C 7,8 C 30,0 C 48 % 1026,2 hPa 0,0 l/m 5,1 km/h (1 Bft) S-SW 192 2 min 0,000 mm 2,8 UV-I 668 W/m 5,3 C 16,3 C 8,0 km/h (2 Bft) 94,44 %
23.03.2019 12:44 16,2 C 7,8 C 30,0 C 49 % 1026,2 hPa 0,0 l/m 6,4 km/h (2 Bft) SW 225 2 min 0,000 mm 2,8 UV-I 666 W/m 5,5 C 16,2 C 9,7 km/h (2 Bft) 98,00 %
23.03.2019 12:42 15,9 C 7,8 C 30,0 C 50 % 1026,2 hPa 0,0 l/m 2,7 km/h (1 Bft) W 264 2 min 0,000 mm 2,8 UV-I 670 W/m 5,5 C 15,9 C 6,4 km/h (2 Bft) 97,87 %
23.03.2019 12:40 15,7 C 7,8 C 30,0 C 52 % 1026,2 hPa 0,0 l/m 1,4 km/h (1 Bft) SO 142 2 min 0,000 mm 2,8 UV-I 671 W/m 5,9 C 15,7 C 4,8 km/h (1 Bft) 97,87 %
23.03.2019 12:38 15,7 C 7,8 C 30,0 C 49 % 1026,2 hPa 0,0 l/m 3,5 km/h (1 Bft) SO 142 2 min 0,000 mm 2,9 UV-I 673 W/m 5,0 C 15,7 C 4,8 km/h (1 Bft) 91,49 %
23.03.2019 12:36 15,7 C 7,8 C 30,0 C 48 % 1026,3 hPa 0,0 l/m 1,1 km/h (1 Bft) S-SO 147 2 min 0,000 mm 2,9 UV-I 673 W/m 4,7 C 15,7 C 3,2 km/h (1 Bft) 93,62 %
23.03.2019 12:34 15,8 C 7,8 C 29,4 C 48 % 1026,3 hPa 0,0 l/m 1,1 km/h (1 Bft) S-SW 195 2 min 0,000 mm 2,9 UV-I 676 W/m 4,8 C 15,8 C 3,2 km/h (1 Bft) 100,00 %
23.03.2019 12:32 16,0 C 7,8 C 29,4 C 48 % 1026,3 hPa 0,0 l/m 4,2 km/h (1 Bft) S-SW 196 2 min 0,000 mm 2,9 UV-I 679 W/m 5,0 C 16,0 C 8,0 km/h (2 Bft) 95,74 %
23.03.2019 12:30 16,1 C 7,8 C 29,4 C 48 % 1026,3 hPa 0,0 l/m 7,5 km/h (2 Bft) W-SW 242 2 min 0,000 mm 2,9 UV-I 679 W/m 5,1 C 15,5 C 12,9 km/h (3 Bft) 100,00 %
_ Min-Zeit 06:24 00:00 05:00 12:56 13:26 - 07:08 - - - - - - 06:16 06:24 07:08 10:52
Minimum _ 1,1 C 7,8 C -3,3 C 46 % 1025,7 hPa - 0,0 km/h (0 Bft) - - - - - - -0,1 C 1,1 C 0,0 km/h (0 Bft) 89,36 %
_ Max-Zeit 13:24 00:00 11:30 06:28 08:32 00:00 12:30 - - 06:12 13:00 11:42 11:50 13:24 13:24 12:30 00:22
Maximum _ 16,9 C 7,8 C 30,6 C 93 % 1028,1 hPa 0,0 l/m 7,5 km/h
W-SW (2 Bft)
- - 2 min 0,381 mm 2,9 UV-I 680 W/m 7,3 C 16,9 C 12,9 km/h
W-SW (3 Bft)
100,00 %
Durchschnitt _ 7,1 C 7,8 C 9,8 C 77 % 1027,2 hPa #0,0 l/m 3,1 km/h (1 Bft) S-SW - #7:20 h #1,575 mm 2,0 UV-I 440 W/m 2,9 C 7,1 C 4,8 km/h (1 Bft) 97,40 %